| 
				
				
				
					
						 
					 | 
				
				
				
					
					
					Asteroid 2008 SE85
					
					
					
					
						
					
					
						
							(Preview)
						
						
						
						
							
						
							
								Orbital elements:
2008 SE85                                           PHA, Earth MOID = 0.0230 AU
Epoch 2012 Sept. 30.0 TT = JDT 2456200.5                MPC
M 297.02887              (2000.0)            P               Q
n   0.47565660     Peri.  294.77953     -0.38486160     -0.92273093
a   1.6253256      Node   177.54043     +0.91852764     -0.38065513
e   0.5251744      Incl.   29.59488     -0.09049046     +0.06057475
P   2.0... 
							 
							
						 
						
					
				 | 
				
					
						Blobrana
					 | 
				
				
					
						2
					 | 
				
				
				
					
						
					 | 
				
				
					
						
					 | 
				
			
		
			
			
				
				
					
						 
					 | 
				
				
				
					
						
					 | 
				
				
				
					
					
					Asteroid 2012 VN82
					
					
					
					
						
					
					
						
							(Preview)
						
						
						
						
							
						
							
								Orbital elements:
2012 VN82                                                Earth MOID = 0.1188 AU
Epoch 2012 Sept. 30.0 TT = JDT 2456200.5                MPC
M 256.66109              (2000.0)            P               Q
n   0.50368774     Peri.  330.85014     -0.93557483     +0.32865986
a   1.5644504      Node   228.92896     -0.28161720     -0.91508870
e   0.5167097      Incl.    9.86482     -0.21305280     -0.23365653
P   1.96           H   19.... 
							 
							
						 
						
					
				 | 
				
					
						Blobrana
					 | 
				
				
					
						1
					 | 
				
				
				
					
						
					 | 
				
				
					
						
					 | 
				
			
		
			
			
				
				
					
						 
					 | 
				
				
				
					
						 
					 | 
				
				
				
					
					
					Asteroid 2012 VO76
					
					
					
					
						
					
					
						
							(Preview)
						
						
						
						
							
						
							
								Orbital elements:
2012 VO76                                           PHA, Earth MOID = 0.0226 AU
Epoch 2012 Sept. 30.0 TT = JDT 2456200.5                MPC
M 227.61591              (2000.0)            P               Q
n   0.75855788     Peri.  299.99708     -0.85404122     -0.25632102
a   1.1907216      Node   229.53601     +0.27044062     -0.96211624
e   0.2082948      Incl.   36.51160     -0.44438212     -0.09290788
P   1.3... 
							 
							
						 
						
					
				 | 
				
					
						Blobrana
					 | 
				
				
					
						1
					 | 
				
				
				
					
						
					 | 
				
				
					
						
					 | 
				
			
		
			
			
				
				
					
						 
					 | 
				
				
				
					
						
					 | 
				
				
				
					
					
					Asteroid 2012 XE133
					
					
					
					
						
					
					
						
							(Preview)
						
						
						
						
							
						
							
								Orbital elements:
2012 XE133                                               Earth MOID = 0.0021 AU
Epoch 2012 Nov. 29.0 TT = JDT 2456260.5                 MPC
M 166.89665              (2000.0)            P               Q
n   1.60490231     Peri.  337.23175     -0.20507083     +0.97177068
a   0.7224986      Node   280.77709     -0.87871252     -0.23529001
e   0.4343223      Incl.    6.81976     -0.43105714     +0.01733055
P   0.61           H   23....                        
							 
							
						 
						
					
				 | 
				
					
						Blobrana
					 | 
				
				
					
						1
					 | 
				
				
				
					
						
					 | 
				
				
					
						
					 | 
				
			
		
			
			
				
				
					
						 
					 | 
				
				
				
					
						 
					 | 
				
				
				
					
					
					Asteroid 2012 VO6
					
					
					
					
						
					
					
						
							(Preview)
						
						
						
						
							
						
							
								Orbital elements:
2012 VO6                                            PHA, Earth MOID = 0.0270 AU
Epoch 2012 Sept. 30.0 TT = JDT 2456200.5                MPC
M 312.78079              (2000.0)            P               Q
n   0.35308844     Peri.  244.19153     -0.59488641     -0.80185082
a   1.9825024      Node   242.42705     +0.75828423     -0.53667797
e   0.5405087      Incl.    3.62754     +0.26667430     -0.26270138
P   2.79           H... 
							 
							
						 
						
					
				 | 
				
					
						Blobrana
					 | 
				
				
					
						1
					 | 
				
				
				
					
						
					 | 
				
				
					
						
					 | 
				
			
		
			
			
				
				
					
						 
					 | 
				
				
				
					
						
					 | 
				
				
				
					
					
					Asteroid 2012 DL31
					
					
					
					
						
					
					
						
							(Preview)
						
						
						
						
							
						
							
								Orbital elements:
2012 DL31                                                Earth MOID = 0.1134 AU
Epoch 2012 Mar. 14.0 TT = JDT 2456000.5                 MPC
M 165.38247              (2000.0)            P               Q
n   1.05032988     Peri.  199.93262     +0.99839103     -0.00078708
a   0.9584855      Node   159.85931     +0.01498948     +0.96799838
e   0.2237492      Incl.    9.47778     -0.05468696     +0.25095521
P   0.94           H   22.9...                                    
							 
							
						 
						
					
				 | 
				
					
						Blobrana
					 | 
				
				
					
						1
					 | 
				
				
				
					
						
					 | 
				
				
					
						
					 | 
				
			
		
			
			
				
				
					
						 
					 | 
				
				
				
					
						
					 | 
				
				
				
					
					
					Asteroid 2012 SX49
					
					
					
					
						
					
					
						
							(Preview)
						
						
						
						
							
						
							
								Orbital elements:
2012 SX49                                                Earth MOID = 0.0205 AU
Epoch 2012 Sept. 30.0 TT = JDT 2456200.5                MPC
M 157.77918              (2000.0)            P               Q
n   1.06747395     Peri.  210.34683     -0.91319921     +0.40744432
a   0.9481954      Node   353.68369     -0.35883781     -0.81271347
e   0.1173490      Incl.    3.91141     -0.19313887     -0.41651643
P   0.92           H   26.... 
							 
							
						 
						
					
				 | 
				
					
						Blobrana
					 | 
				
				
					
						1
					 | 
				
				
				
					
						
					 | 
				
				
					
						
					 | 
				
			
		
			
			
				
				
					
						 
					 | 
				
				
				
					
						
					 | 
				
				
				
					
					
					Asteroid 2012 WH
					
					
					
					
						
					
					
						
							(Preview)
						
						
						
						
							
						
							
								Orbital elements:
2012 WH                                                  Earth MOID = 0.0339 AU
Epoch 2012 Sept. 30.0 TT = JDT 2456200.5                MPC
M 114.10919              (2000.0)            P               Q
n   1.13937364     Peri.    8.18616     -0.44528647     +0.89350270
a   0.9078734      Node   235.39086     -0.82544750     -0.43477095
e   0.1437921      Incl.    4.04632     -0.34692418     -0.11237056
P   0.87           H   25.6           G   0.... 
							 
							
						 
						
					
				 | 
				
					
						Blobrana
					 | 
				
				
					
						1
					 | 
				
				
				
					
						
					 | 
				
				
					
						
					 | 
				
			
		
			
			
				
				
					
						 
					 | 
				
				
				
					
						 
					 | 
				
				
				
					
					
					Asteroid 2012 TF53
					
					
					
					
						
					
					
						
							(Preview)
						
						
						
						
							
						
							
								Orbital elements:
2012 TF53                                           PHA, Earth MOID = 0.0469 AU
Epoch 2012 Sept. 30.0 TT = JDT 2456200.5                MPC
M 290.82335              (2000.0)            P               Q
n   0.57743176     Peri.  282.19366     -0.54842403     -0.83530922
a   1.4282435      Node   201.20372     +0.80269616     -0.51295502
e   0.3705054      Incl.    6.12565     +0.23432873     -0.19782733
P   1.71... 
							 
							
						 
						
					
				 | 
				
					
						Blobrana
					 | 
				
				
					
						1
					 | 
				
				
				
					
						
					 | 
				
				
					
						
					 | 
				
			
		
			
			
				
				
					
						 
					 | 
				
				
				
					
						
					 | 
				
				
				
					
					
					Asteroid 2005 RZ2
					
					
					
					
						
					
					
						
							(Preview)
						
						
						
						
							
						
							
								Orbital elements:
2005 RZ2                                                 Earth MOID = 0.0810 AU
Epoch 2012 Sept. 30.0 TT = JDT 2456200.5                MPC
M 302.51919              (2000.0)            P               Q
n   0.84676379     Peri.  279.97092     +0.24737150     -0.96415555
a   1.1065249      Node   155.06148     +0.95402032     +0.22506460
e   0.1037642      Incl.   13.15715     +0.16927070     +0.14053468
P   1.16           H   23....                                 
							 
							
						 
						
					
				 | 
				
					
						Blobrana
					 | 
				
				
					
						1
					 | 
				
				
				
					
						
					 | 
				
				
					
						
					 | 
				
			
		
			
			
				
				
					
						 
					 | 
				
				
				
					
						
					 | 
				
				
				
					
					
					Asteroid 2012 JS17
					
					
					
					
						
					
					
						
							(Preview)
						
						
						
						
							
						
							
								Orbital elements:
2012 JS17                                                Earth MOID = 0.1213 AU
Epoch 2012 Mar. 14.0 TT = JDT 2456000.5                 MPC
M 218.68777              (2000.0)            P               Q
n   0.73501568     Peri.  307.03274     +0.95532903     -0.17349995
a   1.2160133      Node    64.09606     +0.27307399     +0.82781280
e   0.4166440      Incl.   15.42527     -0.11303552     +0.53350139
P   1.34           H   20.9... 
							 
							
						 
						
					
				 | 
				
					
						Blobrana
					 | 
				
				
					
						1
					 | 
				
				
				
					
						
					 | 
				
				
					
						
					 | 
				
			
		
			
			
				
				
